Probability
0 0 0 0 0 0 0 0 0 0 0 0 0 0 0 0 0 0 0 0 0 0 0 0 0 0 0 0 0 0 0 0 0 0 0 0 0 0 0 0 0 0 0 0
0 0 0 0 0 0 0 0 0 0 0 0 0 0 0 0 0 0 0 0 0 0 0 0 0 0 0 0 0 0 0 0 0 0 0 0 0 0 0 0 0 0 0 0
0 0 0 0 0 0 0 0 0 0 0 0 0 0 0 0 0 0 0 0 0 0 0 0 0 0 0 0 0 0 0 0 0 0 0 0 0 0 0 0 0 0 0 0
0 0 0 0 0 0 0 0 0 0 0 0 0 0 0 0 0 0 0 0 0 0 0 0 0 0 0 0 0 0 0 0 0 0 0 0 0 0 0 0 0 0 0 0
0 0 0 0 0 0 0 0 0 0 0 0 0 0 0 0 0 0 0 0 0 0 0 0 0 0 0 0 0 0 0 0 0 0 0 0 0 0 0 0 0 0 0 0
0 0 0 0 0 0 0 0 0 0 0 0 0 0 0 0 0 0 0 0 0 0 0 0 0 0 0 0 0 0 0 0 0 0 0 0 0 0 0 0 0 0 0 0
0 0 0 0 0 0 0 0 0 0 0 0 0 0 0 0 0 0 0 0 0 0 0 0 0 0 0 0 0 0 0 0 0 0 0 0 0 0 0 0 0 0 0 0
0 0 0 0 0 0 0 0 0 0 0 0 0 0 0 0 0 0 0 0 0 0 0 0 0 0 0 0 0 0 0 0 0 0 0 0 0 0 0 0 0 0 0 0
0 0 0 0 0 0 0 0 0 0 0 0 0 0 0 0 0 0 0 0 0 0 0 0 0 0 0 0 0 0 0 0 0 0 0 0 0 0 0 0 0 0 0 0
0 0 0 0 0 0 0 0 0 0 0 0 0 0 0 0 0 0 0 0 0 0 0 0 0 0 0 0 0 0 0 0 0 0 0 0 0 0 0 0 0 0 0 0
0 0 0 0 0 0 0 0 0 0 0 0 0 0 0 0 0 0 0 0 0 0 0 0 0 0 0 0 0 0 0 0 0 0 0 0 0 0 0 0 0 0 0 0
0 0 0 0 0 0 0 0 0 0 0 0 0 0 0 0 0 0 0 0 0 0 0 0 0 0 0 0 0 0 0 0 0 0 0 0 0 0 0 0 0 0 0 0
0 0 0 0 0 0 0 0 0 0 0 0 0 0 0 0 0 0 0 0 0 0 0 0 0 0 0 0 0 0 0 0 0 0 0 0 0 0 0 0 0 0 0 0
0 0 0 0 0 0 0 0 0 0 0 0 0 0 0 0 0 0 0 0 0 0 0 0 0 0 0 0 0 0 0 0 0 0 0 0 0 0 0 0 0 0 0 0
0 0 0 0 0 0 0 0 0 0 0 0 0 0 0 0 0 0 0 0 0 0 0 0 0 0 0 0 0 0 0 0 0 0 0 0 0 0 0 0 0 0 0 0
0 0 0 0 0 0 0 0 0 0 0 0 0 0 0 0 0 0 0 0 0 0 0 0 0 0 0 0 0 0 0 0 0 0 0 0 0 0 0 0 0 0 0 0
0 0 0 0 0 0 0 0 0 0 0 0 0 0 0 0 0 0 0 0 0 0 0 0 0 0 0 0 0 0 0 0 0 0 0 0 0 0 0 0 0 0 0 0
0 0 0 0 0 0 0 0 0 0 0 0 0 0 0 0 0 0 0 0 0 0 0 0 0 0 0 0 0 0 0 0 0 0 0 0 0 0 0 0 0 0 0 0
0 0 0 0 0 0 0 0 0 0 0 0 0 0 0 0 0 0 0 0 0 0 0 0 0 0 0 0 0 0 0 0 0 0 0 0 0 0 0 0 0 0 0 0
0 0 0 0 0 0 0 0 0 0 0 0 0 0 0 0 0 0 0 0 0 0 0 0 0 0 0 0 0 0 0 0 0 0 0 0 0 0 0 0 0 0 0 0
0 0 0 0 0 0 0 0 0 0 0 0 0 0 0 0 0 0 0 0 0 0 0 0 0 0 0 0 0 0 0 0 0 0 0 0 0 0 0 0 0 0 0 0
0 0 0 0 0 0 0 0 0 0 0 0 0 0 0 0 0 0 0 0 0 0 0 0 0 0 0 0 0 0 0 0 0 0 0 0 0 0 0 0 0 0 0 0
0 0 0 0 0 0 0 0 0 0 0 0 0 0 0 0 0 0 0 0 0 0 0 0 0 0 0 0 0 0 0 0 0 0 0 0 0 0 0 0 0 0 0 0
0 0 0 0 0 0 0 0 0 0 0 0 0 0 0 0 0 0 0 0 0 0 0 0 0 0 0 0 0 0 0 0 0 0 0 0 0 0 0 0 0 0 0 0
0 0 0 0 0 0 0 0 0 0 0 0 0 0 0 0 0 0 0 0 0 0 0 0 0 0 0 0 0 0 0 0 0 0 0 0 0 0 0 0 0 0 0 0
0 0 0 0 0 0 0 0 0 0 0 0 0 0 0 0 0 0 0 0 0 0 0 0 0 0 0 0 0 0 0 0 0 0 0 0 0 0 0 0 0 0 0 0
0 0 0 0 0 0 0 0 0 0 0 0 0 0 0 0 0 0 0 0 0 0 0 0 0 0 0 0 0 0 0 0 0 0 0 0 0 0 0 0 0 0 0 0
Wind_Speed
6 4 6 8 10 12 13 14 14 16 17 15 10 9 8 6 4 4 3 2 2 1 0 1 2 2 2 2 2 2 1 1 1 2 2 2 2 2 2 2 3 3 3 4
6 6 5 6 11 15 17 15 16 14 17 9 7 6 5 6 7 7 5 4 2 2 1 0 1 1 2 2 2 2 1 1 2 2 2 2 3 2 2 3 3 3 4 4
7 5 3 12 17 16 13 12 12 19 20 5 6 9 10 10 9 8 7 5 4 2 1 0 1 1 2 2 2 2 1 2 2 2 2 2 3 2 3 3 3 4 4 4
4 6 13 13 6 12 15 15 14 12 7 9 10 8 6 6 8 7 6 4 3 2 2 2 2 2 2 2 2 2 2 3 3 3 3 3 3 3 4 3 3 4 5 5
6 8 9 9 5 9 12 15 13 15 11 6 5 3 1 1 4 5 5 4 3 3 2 2 2 2 2 2 2 3 3 4 4 3 4 4 4 4 3 3 4 4 4 5
6 6 10 9 3 4 6 10 7 11 11 9 10 7 7 4 5 5 5 5 4 3 3 3 2 2 3 3 4 5 5 5 4 3 3 4 5 4 3 3 5 4 5 5
8 7 9 7 3 7 9 10 2 6 8 10 10 6 6 8 6 5 5 5 4 4 3 3 3 3 4 4 5 5 5 5 5 4 4 4 4 3 3 3 4 4 5 5
7 8 11 4 7 10 6 1 2 2 4 6 6 7 8 8 7 6 5 4 4 4 4 4 4 4 5 5 5 6 5 5 5 5 4 3 4 4 3 3 4 4 5 5
9 8 2 4 4 1 3 4 3 4 5 8 8 7 7 6 5 4 4 4 3 4 4 4 5 5 4 5 6 6 6 6 5 5 4 3 3 4 3 3 3 4 4 5
3 4 1 1 0 1 2 3 3 5 7 7 7 7 7 5 4 4 3 3 3 3 3 4 5 5 4 5 6 5 6 6 6 5 5 4 3 3 3 3 4 4 5 5
5 3 1 1 3 3 4 5 6 5 5 6 8 7 6 5 4 3 3 3 3 3 3 4 5 5 5 6 6 6 6 5 5 5 5 5 4 4 5 5 5 6 5 5
7 7 7 6 6 6 6 6 6 6 5 4 5 6 5 4 3 3 3 3 3 3 3 4 4 5 5 5 5 5 6 6 5 5 4 4 5 6 8 8 10 12 11 9
4 4 4 4 5 5 6 5 4 5 6 5 4 4 5 3 3 3 3 3 3 3 3 4 4 5 5 5 5 4 5 6 5 5 5 5 5 5 7 7 8 9 10 10
4 5 4 5 6 5 5 5 5 6 5 5 5 4 4 3 3 3 3 3 3 3 3 4 5 5 5 5 5 5 5 6 5 5 5 5 5 5 5 6 6 5 6 9
5 4 6 6 6 5 5 6 6 5 5 4 4 4 4 3 1 1 2 3 3 3 3 4 5 6 5 5 6 6 5 5 4 5 5 5 5 5 5 5 5 5 4 5
5 3 4 6 8 7 6 6 6 6 5 4 4 3 3 2 1 1 1 2 2 3 4 4 5 6 6 6 6 5 5 7 6 5 5 5 4 4 4 4 4 4 4 4
9 8 8 8 9 7 7 6 6 6 5 5 4 3 2 1 0 0 1 2 2 4 4 4 6 6 6 5 5 5 5 5 6 5 4 4 4 4 4 4 3 3 3 4
5 6 7 7 8 8 7 5 5 5 4 4 4 3 2 2 1 2 2 3 3 3 3 4 5 5 5 6 5 4 4 4 4 4 4 4 4 4 4 3 3 3 3 3
2 4 4 5 5 6 6 5 5 4 4 4 4 3 2 1 1 2 2 2 2 3 4 5 8 6 6 7 6 3 4 4 4 4 4 4 4 3 3 2 2 2 2 2
4 4 6 6 5 5 6 5 5 4 3 3 3 2 1 1 1 1 1 1 2 3 4 5 5 5 5 6 6 4 4 4 4 4 3 3 3 3 3 2 2 2 2 2
5 5 6 7 6 6 5 5 5 5 3 3 3 3 2 1 1 1 1 1 2 3 4 5 4 4 4 4 5 4 3 3 3 3 3 3 3 3 2 2 2 2 2 2
5 5 6 6 6 5 4 3 4 5 4 3 2 2 2 1 0 1 2 2 3 5 4 3 3 4 5 5 3 3 3 3 3 3 3 3 2 2 2 2 2 2 2 2
4 5 5 5 5 5 4 3 3 3 3 3 2 2 1 1 1 1 1 2 2 4 3 3 5 6 6 3 3 3 3 3 3 3 3 3 2 2 3 3 2 2 2 2
4 4 4 4 5 5 4 3 2 2 2 2 1 1 1 0 1 1 2 3 4 4 3 5 6 6 5 3 3 3 3 3 3 3 3 3 3 2 3 3 3 2 2 3
4 5 4 5 4 3 3 3 3 3 2 2 1 1 0 0 1 2 2 3 4 4 3 5 7 6 4 3 3 3 3 3 3 3 3 3 3 3 3 3 3 3 3 3
3 3 3 2 2 2 2 2 2 1 1 1 1 1 1 1 1 2 2 3 4 4 3 3 4 4 3 3 3 4 3 4 4 3 3 3 3 3 3 3 4 3 3 3
4 3 3 3 2 2 2 2 2 1 1 1 0 1 1 2 2 2 3 3 3 3 3 3 3 3 3 3 4 4 4 4 4 4 3 3 3 4 4 5 4 4 4 4
Wind_Direction
228 182 165 192 200 197 204 212 219 235 239 237 201 203 200 189 171 161 170 165 149 127 75 34 35 19 13 8 15 29 46 10 297 293 286 283 280 271 261 249 244 242 243 246
232 208 199 227 223 211 217 224 233 248 252 238 186 184 182 184 181 183 188 187 183 176 168 128 51 20 14 9 9 32 41 326 322 323 311 298 291 285 275 266 260 253 250 252
228 191 167 240 223 212 215 214 208 233 245 203 196 199 197 193 190 191 187 181 179 181 168 124 40 29 7 352 9 34 20 353 349 338 325 310 300 290 277 268 262 259 257 253
197 171 223 239 208 202 216 228 220 232 232 192 197 193 192 186 183 182 172 164 151 125 92 56 39 25 8 13 31 33 19 1 352 346 328 320 308 291 284 272 262 261 262 260
193 219 255 276 220 185 201 238 222 226 232 208 141 107 269 207 167 162 151 135 125 113 104 77 49 22 28 33 31 27 9 353 344 336 323 320 308 295 287 279 275 266 267 261
193 204 227 243 215 176 150 252 231 208 213 186 152 191 217 165 128 111 104 104 104 96 88 71 32 18 46 32 26 10 349 332 326 325 316 305 297 293 284 276 272 272 268 258
207 219 251 248 185 134 174 237 233 196 196 174 181 197 140 128 116 111 106 99 96 91 79 55 25 36 42 28 11 347 336 329 328 326 311 296 293 287 286 280 280 274 274 271
188 210 242 193 152 181 204 131 118 125 139 136 121 107 116 119 118 116 108 97 89 82 63 41 29 35 32 16 352 343 337 331 326 321 315 309 301 295 287 280 282 281 282 284
193 211 230 165 188 187 136 141 144 127 121 123 120 124 122 120 119 113 107 94 80 79 60 39 31 32 22 356 349 342 335 329 323 321 315 308 298 296 295 279 274 279 278 281
208 244 221 150 59 77 120 140 138 134 131 128 128 132 128 128 123 111 93 78 68 64 50 27 20 24 14 347 344 336 329 325 325 323 318 313 298 280 271 266 267 269 270 275
213 212 130 229 199 169 132 119 114 110 117 129 131 135 138 136 129 115 90 62 56 51 32 8 3 2 359 349 343 335 325 321 319 312 307 306 296 274 272 255 245 260 263 263
207 195 184 201 185 167 152 151 148 134 118 111 128 138 133 126 114 101 85 60 46 32 15 354 348 341 344 343 341 332 324 322 316 310 305 301 301 300 284 276 279 274 272 268
187 164 160 153 154 157 157 154 144 136 137 128 107 110 118 115 99 82 68 48 26 2 345 335 331 328 334 338 337 324 307 305 303 301 299 298 297 298 302 304 293 288 287 286
165 140 154 178 179 164 148 134 113 98 90 96 96 89 90 95 86 72 49 18 355 342 331 327 323 321 328 332 326 313 299 291 288 287 288 287 285 283 283 290 300 299 297 296
198 189 179 157 141 135 131 128 126 127 119 100 89 92 90 95 87 34 5 347 337 330 327 325 318 314 324 324 316 305 299 291 287 284 282 280 279 278 276 274 277 288 301 307
176 154 154 161 166 161 153 159 164 166 154 142 128 109 93 92 78 329 334 348 339 314 312 311 305 307 316 317 312 303 294 295 295 288 286 283 280 277 277 276 278 284 290 296
163 184 187 188 189 185 183 180 173 163 153 149 138 117 107 107 113 301 326 324 295 282 286 292 298 306 311 310 305 300 299 300 298 292 284 282 282 281 280 277 277 282 288 298
188 187 180 181 183 178 167 149 138 140 143 134 123 127 145 169 218 270 301 314 312 303 296 302 300 307 314 310 303 296 295 295 296 293 293 291 289 287 287 285 286 290 304 317
135 134 130 127 139 146 144 137 130 122 121 132 143 158 177 212 232 261 290 309 314 308 309 315 324 334 317 310 315 304 303 303 302 299 296 298 298 295 293 292 296 299 308 320
101 98 102 96 90 109 124 123 121 120 127 137 138 142 157 212 233 248 257 263 258 268 294 305 310 310 311 314 327 315 309 307 306 305 304 302 302 305 306 304 301 304 312 318
114 108 106 104 94 91 109 124 129 132 134 140 148 160 173 216 239 219 212 275 288 298 304 309 314 312 314 321 325 321 319 317 315 312 310 310 311 313 315 319 318 317 318 324
114 113 110 110 113 106 98 107 122 128 127 122 124 136 142 157 215 271 247 243 290 309 314 314 312 316 331 336 332 330 329 328 325 324 323 322 319 316 316 320 317 317 317 317
106 111 114 116 120 116 98 93 106 121 127 131 137 146 159 190 204 202 278 291 305 315 326 314 316 335 349 346 337 336 337 337 334 331 328 326 324 320 316 316 316 318 316 317
105 104 104 107 112 112 104 94 93 99 109 112 113 122 136 124 307 276 274 306 318 324 326 314 329 348 354 344 338 337 334 332 329 328 328 328 327 324 320 318 317 318 317 318
104 104 108 114 113 111 116 117 102 92 92 86 70 46 10 256 247 288 307 312 319 327 320 325 338 344 345 333 329 323 318 316 316 317 319 318 318 315 311 309 307 306 304 302
102 102 101 98 104 114 118 116 113 112 106 84 16 345 338 324 307 300 302 306 310 312 309 309 316 320 317 313 310 307 306 308 311 310 305 304 304 302 300 300 300 295 292 291
91 93 97 87 74 86 102 109 118 125 134 147 268 301 310 314 313 310 307 305 306 305 301 301 301 300 299 299 298 297 296 296 295 293 292 290 290 290 292 292 290 289 287 286